Location: Sabalos
(43.2860°N, 0.1414°E)
Time: 07:57:23
(UTC+00:00)

Cosmos 1953 Rocket - Pass Details

Date: 05 July 2020
Orbit: 605 x 634 km, 82.5° (Epoch: 14 August)

Event Time Altitude Azimuth Distance (km) Brightness Sun altitude
Exits shadow 21:33:10 14° 194° (SSW) 1,681 5.4 -15.5°
Maximum altitude 21:36:48 75° 279° (W) 632 3.6 -15.9°
Drops below altitude 10° 21:41:09 10° 5° (N) 1,965 6.9 -16.3°
Sets 21:43:23 0° 7° (N) 2,875 7.8 -16.5°
